Wind_Speed
27 21 20 15 13 14 12 12 13 14 16 17 17 17 18 19 18 18 20 21 23 23 22 22 21 16 18 20 22 29 23 23 22 22 23 21 19 19 21 16 35 32 34 35 47 43 44 48 32 53 53 53 41 40
25 23 18 13 12 12 11 11 13 14 15 16 18 20 21 19 18 20 19 22 19 19 19 21 18 16 18 21 24 27 29 19 20 24 22 21 17 22 24 22 32 38 40 33 34 48 47 52 47 39 26 37 57 31
28 27 22 12 10 13 11 11 10 11 13 12 11 13 16 17 19 19 21 19 20 20 21 18 16 15 18 21 24 28 22 16 22 22 22 23 18 26 19 15 30 26 33 28 35 45 54 50 44 32 27 39 50 53
28 27 20 14 14 15 15 9 9 11 10 9 12 15 17 17 17 18 16 18 22 20 17 14 15 14 17 19 23 22 17 14 18 19 18 14 16 15 9 5 18 33 39 30 30 33 49 51 47 42 32 31 24 35
25 28 22 10 15 15 14 9 9 8 9 10 14 16 17 14 14 14 17 22 21 19 14 12 13 16 15 18 20 15 13 14 15 15 14 13 16 15 10 3 6 12 23 22 10 33 30 52 43 30 26 31 25 29
22 24 20 21 14 14 11 8 8 8 9 12 15 15 12 12 15 19 21 22 15 10 13 15 17 16 15 17 18 12 11 11 10 15 14 12 12 11 7 15 6 7 13 26 22 14 24 39 49 35 31 24 26 28
22 19 18 17 16 14 10 9 8 8 9 11 11 10 11 13 16 19 17 11 7 10 13 15 15 16 13 17 16 4 9 9 9 11 12 12 16 9 10 17 10 14 14 21 23 22 24 18 50 48 41 33 30 30
20 16 18 22 18 16 11 9 8 7 8 10 10 10 11 15 17 16 12 4 7 10 12 14 13 13 17 18 14 4 8 8 8 10 12 11 10 11 13 8 5 5 8 11 16 20 21 23 26 34 29 36 37 34
18 17 21 22 20 16 11 10 9 7 7 9 11 10 11 14 18 15 2 3 7 11 10 13 13 9 12 16 12 5 7 8 8 7 12 11 8 14 8 4 3 3 6 9 14 19 22 24 25 25 26 25 22 26
21 18 19 22 17 17 14 13 9 7 7 8 9 9 11 13 16 10 2 2 8 11 11 13 18 10 13 17 11 7 5 7 11 10 10 10 12 11 9 7 4 5 1 5 16 19 21 25 28 27 28 28 27 28
18 15 25 20 18 18 16 13 9 7 7 8 9 9 10 11 13 11 4 1 6 10 13 13 17 12 15 15 11 9 5 5 5 7 9 4 14 12 9 8 7 6 5 4 2 2 21 26 24 22 21 24 26 29
19 22 21 17 25 19 17 12 9 7 6 8 8 8 9 10 11 9 3 2 4 9 12 12 15 13 11 14 12 10 6 6 6 7 8 12 10 11 10 9 8 5 5 4 4 4 2 5 12 16 17 18 21 24
18 23 21 19 22 17 14 12 9 7 6 7 9 9 8 9 10 6 5 4 2 7 11 13 14 14 13 13 13 13 12 6 11 7 7 6 11 11 11 10 9 8 6 4 3 4 6 8 11 13 15 17 17 18
18 23 17 18 17 16 15 11 9 7 6 7 9 9 7 8 8 3 5 5 1 5 8 11 13 10 13 14 13 15 16 14 8 12 10 15 6 13 13 12 11 9 8 8 7 7 8 9 11 13 15 17 19 20
14 22 17 19 18 15 13 11 9 7 7 8 9 10 7 6 6 3 5 6 4 2 4 9 10 12 10 13 14 16 16 15 10 5 18 20 16 14 12 10 9 8 9 10 11 11 13 13 14 15 16 16 18 20
12 14 16 19 16 13 12 11 10 8 7 8 10 10 6 4 4 4 7 7 5 2 3 5 7 10 9 10 13 13 15 15 11 11 10 12 14 14 14 14 13 12 12 13 14 14 14 15 15 17 18 20 22 24
14 17 23 16 12 11 12 11 10 9 7 8 10 9 6 5 5 4 8 9 8 4 0 2 3 7 8 8 11 13 13 14 13 13 12 13 13 13 13 13 13 13 14 14 14 15 15 15 16 17 18 20 21 22
12 18 23 18 13 12 11 11 11 9 8 9 9 8 5 5 6 6 9 11 10 6 3 0 2 3 8 10 12 12 14 13 15 16 15 15 15 14 14 13 12 12 12 12 12 13 15 16 17 17 18 19 20 21
12 16 16 17 16 14 9 10 11 10 9 10 8 6 4 4 4 6 9 10 10 8 5 3 1 3 6 8 10 10 12 14 15 16 16 17 16 15 14 14 14 14 13 13 14 14 14 15 16 16 17 18 18 19
18 14 20 18 22 19 12 12 12 9 10 10 8 6 4 4 5 8 10 9 11 11 9 6 2 1 4 6 8 10 12 13 15 16 17 18 18 17 17 16 15 15 15 15 15 16 16 16 17 17 18 20 20 20
18 15 16 14 17 18 13 14 11 10 10 10 8 7 6 5 7 8 11 12 11 13 11 8 4 2 4 7 8 10 11 13 16 20 22 21 19 18 18 17 17 17 17 17 17 15 16 20 21 18 18 21 20 20
15 16 13 12 13 13 14 13 11 11 12 10 9 8 7 6 6 8 9 11 12 15 13 9 6 4 4 5 7 8 11 14 17 19 20 20 19 18 18 18 17 17 18 19 20 20 12 23 31 18 26 25 22 21
17 15 13 10 13 14 12 13 12 12 12 10 9 8 8 7 7 7 8 8 9 17 17 12 8 8 6 5 6 8 12 15 17 18 19 19 19 18 18 19 21 21 20 24 24 21 16 17 20 18 18 17 17 22
15 17 18 13 14 13 12 12 13 13 12 10 9 9 8 8 9 10 9 12 17 17 15 13 10 9 6 5 6 9 12 14 17 16 19 18 15 17 18 22 23 24 26 25 28 26 25 24 24 24 22 19 17 18
16 15 14 14 13 12 13 14 13 12 11 10 9 9 11 10 11 9 9 15 12 16 9 8 7 6 5 4 6 8 11 14 13 17 18 17 16 18 22 24 23 24 27 29 29 28 27 26 24 24 23 23 22 22
13 13 12 12 12 13 12 12 12 11 11 11 12 12 12 12 12 10 9 8 11 8 12 8 6 7 4 4 6 8 10 11 10 15 15 15 16 17 18 21 24 26 28 29 29 29 27 26 24 23 24 24 22 21
13 12 12 12 11 11 10 12 11 10 11 10 10 13 14 13 12 11 10 10 7 13 11 10 7 5 3 4 5 6 8 8 8 10 12 13 15 16 18 21 25 28 29 29 30 30 29 27 26 24 24 25 25 25
13 13 11 10 9 9 10 12 11 11 11 9 10 15 16 16 12 10 9 7 4 13 10 9 6 4 4 4 5 7 7 6 8 10 9 7 11 14 16 21 24 26 30 30 30 31 31 31 29 27 26 26 27 27
12 11 9 8 7 9 10 9 5 4 4 5 8 17 15 13 11 12 11 9 5 9 13 12 10 7 5 4 6 8 8 6 8 9 10 10 11 14 18 20 21 25 27 27 30 31 32 33 33 32 30 29 29 30
10 9 7 6 7 6 5 3 5 7 8 10 16 16 12 9 8 8 12 15 8 12 14 11 7 6 3 5 6 3 7 10 5 9 10 8 13 15 16 18 23 24 25 27 28 28 30 32 32 33 34 35 33 33
9 7 6 5 6 4 3 4 8 10 12 12 11 11 12 8 6 6 7 12 15 13 8 7 6 2 5 11 5 12 12 8 7 10 10 8 3 9 13 17 20 21 23 25 27 29 30 31 33 34 36 36 36 35
7 5 6 6 8 8 8 8 8 9 9 11 11 10 9 8 6 7 9 10 8 8 8 6 5 4 9 5 7 12 6 6 8 10 10 10 11 12 14 16 17 19 21 23 24 26 28 30 32 34 34 35 36 37
8 6 6 7 10 11 9 9 9 10 11 11 8 8 9 7 8 8 8 7 7 9 9 6 4 1 2 2 4 2 4 6 7 9 11 11 11 11 12 14 16 18 21 23 25 26 29 31 33 33 33 33 34 34
Wind_Direction
282 284 298 304 258 269 261 276 285 289 287 282 279 285 293 302 302 299 304 308 309 308 305 304 303 282 279 283 289 294 290 300 302 297 304 301 300 283 283 258 240 217 208 227 219 218 219 236 228 201 202 204 215 230
276 264 305 294 269 280 270 283 294 301 299 289 287 286 290 291 294 299 303 313 318 316 316 313 307 288 282 290 295 298 299 301 299 296 302 305 299 297 293 266 239 238 202 205 217 218 216 224 231 225 240 201 204 247
267 274 268 270 261 293 272 283 293 303 307 313 313 311 307 297 294 300 309 314 317 314 320 316 313 297 295 298 301 303 294 291 301 305 309 311 305 310 301 261 233 238 221 199 214 211 213 223 232 236 216 215 210 224
262 266 253 278 253 271 275 273 288 305 311 311 322 318 311 308 303 305 311 315 326 329 326 324 311 309 307 312 312 302 294 311 310 314 312 314 329 338 358 292 221 234 234 205 211 212 216 218 228 242 237 222 218 191
263 264 256 256 261 260 265 255 281 302 309 317 321 320 315 318 320 320 319 322 330 332 334 333 328 323 328 334 333 314 308 318 313 317 331 325 341 329 329 350 248 245 248 226 190 200 213 219 219 218 233 241 230 203
265 257 266 268 263 252 246 250 276 285 307 317 321 323 325 334 329 323 321 330 334 343 341 341 339 338 350 348 338 309 311 329 312 322 343 329 326 340 296 324 263 197 205 219 231 223 210 218 218 225 231 236 245 243
251 248 253 260 251 252 235 241 256 283 302 322 323 329 332 335 330 331 333 345 4 0 353 343 344 354 358 355 352 343 340 347 347 5 358 340 342 343 326 333 182 177 186 197 209 218 231 231 215 224 229 241 242 248
233 247 242 247 256 244 231 235 248 272 308 323 324 324 332 342 341 340 342 31 20 9 2 350 351 359 346 351 355 339 358 2 11 11 18 11 336 323 338 25 114 168 210 210 213 218 223 216 216 226 240 242 243 253
243 251 241 249 251 232 224 230 243 272 307 318 319 312 328 341 347 342 93 66 25 7 356 4 5 344 346 360 357 352 2 1 347 344 20 12 19 351 359 330 284 275 256 233 229 224 225 229 228 231 234 235 243 248
243 253 247 246 241 221 213 222 238 271 304 316 321 311 324 333 342 348 162 94 17 10 11 6 7 346 6 2 9 331 352 9 27 33 29 34 28 18 11 12 12 337 352 287 250 234 229 231 234 237 240 249 257 262
245 248 235 246 225 212 209 217 236 262 301 316 325 317 322 335 343 347 210 124 12 15 16 9 6 7 12 6 1 344 333 348 3 26 2 1 52 23 6 4 348 341 336 352 7 301 232 232 237 244 252 251 251 258
239 244 246 253 222 204 205 211 231 258 297 321 327 317 323 336 341 344 201 153 32 23 20 17 9 12 9 15 18 11 346 325 336 331 348 12 11 356 349 359 1 339 321 321 314 315 319 205 226 240 249 252 256 261
236 236 243 228 218 192 194 208 228 252 286 315 331 320 312 330 342 343 184 175 45 20 22 20 12 19 18 13 18 24 16 350 314 281 274 249 352 347 328 324 324 326 332 325 309 271 242 242 248 251 253 256 260 263
236 243 224 215 182 190 193 210 227 252 289 310 320 318 308 318 333 322 203 192 205 3 19 22 18 21 18 17 11 16 15 13 2 337 332 277 346 339 310 305 312 302 292 304 305 302 293 281 270 262 259 260 263 265
234 236 231 188 184 190 199 216 231 254 288 305 317 321 307 302 317 303 212 205 216 309 6 23 25 34 30 22 18 12 15 13 351 342 351 346 345 328 323 320 312 309 297 290 289 286 285 281 274 270 266 263 263 265
223 245 209 179 183 191 204 216 230 252 285 305 314 319 307 287 298 291 205 187 179 171 22 16 24 32 35 30 28 25 29 25 21 342 338 326 322 320 315 312 311 304 299 296 294 292 288 284 279 275 273 275 275 276
218 219 198 194 204 220 213 223 233 256 285 296 312 313 296 286 281 263 196 186 181 171 248 14 26 33 30 28 32 26 24 22 14 13 9 3 357 348 338 330 320 315 310 307 305 301 296 292 287 284 282 280 280 281
209 186 189 201 214 233 234 227 242 262 286 292 304 308 295 285 267 210 191 187 183 181 214 148 21 19 22 21 17 6 10 7 4 5 4 0 357 357 355 352 347 340 330 321 310 304 301 298 294 294 292 290 289 288
203 178 181 199 213 232 239 238 247 266 280 287 290 294 277 271 234 209 193 193 191 198 215 206 46 35 22 8 9 9 7 2 3 359 357 355 352 351 350 348 345 342 338 335 331 326 322 318 314 309 306 303 300 299
206 193 186 201 218 231 244 246 249 262 273 277 275 275 263 263 237 210 198 196 200 199 217 217 214 346 11 7 2 358 1 358 354 354 355 353 351 349 346 343 339 336 334 332 331 331 327 321 315 309 306 303 300 300
200 213 198 202 217 243 236 244 249 261 269 267 269 262 265 251 245 235 222 224 223 212 213 213 223 289 337 345 344 349 351 351 355 355 354 356 355 355 352 351 349 348 346 343 340 339 336 333 325 313 320 317 308 305
207 215 221 224 245 229 237 238 247 259 265 264 264 261 255 246 247 247 236 233 232 217 218 215 240 252 277 309 318 334 345 351 356 355 356 357 1 360 356 356 357 357 357 360 0 2 331 323 336 323 299 324 319 315
196 207 218 240 222 227 237 239 249 258 265 261 258 257 251 233 229 234 227 232 234 218 218 224 245 247 247 271 303 328 343 351 352 357 1 4 359 359 4 4 11 12 8 9 3 4 3 329 328 336 330 328 332 323
196 208 225 232 234 239 238 245 255 261 262 261 255 243 233 227 225 235 247 254 231 208 215 217 228 226 241 283 320 339 351 350 351 358 4 4 15 16 15 18 17 14 17 7 8 359 354 346 344 343 341 339 331 325
213 215 219 228 233 236 245 256 265 268 263 256 249 237 227 228 230 237 259 291 197 174 182 209 208 232 257 298 324 345 354 352 360 9 5 10 17 20 20 23 21 18 15 11 5 1 357 354 349 346 344 340 336 331
208 213 220 221 230 243 256 264 266 265 263 254 239 227 222 224 234 235 230 255 285 236 189 181 207 233 249 293 328 354 350 350 3 9 8 23 23 18 19 21 19 17 13 7 4 1 360 359 358 356 353 352 350 341
207 214 218 230 244 256 264 271 274 277 264 252 241 219 218 222 230 235 243 247 298 171 177 183 233 231 247 294 329 336 334 351 8 6 17 26 19 14 14 20 16 14 14 10 6 5 4 3 2 1 359 357 355 352
214 221 230 241 254 268 277 286 291 272 262 246 227 205 209 220 226 227 225 255 244 199 201 209 228 234 251 278 308 317 337 359 8 3 9 13 17 22 20 20 19 16 9 9 8 7 7 6 5 4 3 2 1 359
215 223 235 243 261 276 287 294 289 225 209 206 193 192 206 214 222 228 225 239 245 202 201 206 219 240 244 281 305 310 329 351 2 349 18 9 16 16 14 12 14 13 14 11 6 7 7 7 7 7 7 6 5 6
223 225 233 252 274 260 271 275 196 178 159 165 168 183 193 201 209 228 230 228 189 177 182 197 216 228 253 278 306 329 330 335 300 2 349 358 19 12 7 9 14 12 9 7 10 11 8 8 8 9 10 11 11 9
213 218 243 249 202 184 171 158 167 162 153 162 174 177 173 179 185 162 141 155 162 173 182 199 214 255 309 303 301 299 310 21 9 354 2 21 276 357 3 13 13 8 6 6 7 9 10 11 9 9 9 10 10 10
212 222 232 200 182 171 161 161 169 168 162 155 155 158 167 165 171 167 158 158 166 169 185 183 130 22 299 271 339 352 352 2 348 348 348 3 11 3 4 5 4 4 5 5 5 8 10 11 11 12 10 9 9 9
196 200 191 184 174 165 162 165 171 167 158 156 155 163 169 159 158 148 151 160 197 199 178 207 305 46 294 199 219 265 10 357 342 353 12 14 9 3 2 0 359 1 2 2 3 4 4 6 6 7 9 10 10 10
Height
5774 5772 5771 5769 5769 5770 5771 5771 5771 5771 5769 5768 5767 5766 5765 5763 5761 5758 5756 5753 5750 5746 5742 5738 5734 5732 5730 5728 5725 5719 5718 5714 5711 5706 5703 5699 5697 5695 5693 5693 5687 5692 5696 5703 5713 5717 5722 5718 5727 5737 5747 5752 5761 5764
5767 5765 5766 5766 5766 5767 5767 5766 5766 5766 5764 5763 5762 5760 5759 5757 5755 5753 5751 5748 5744 5740 5737 5733 5729 5727 5725 5722 5719 5714 5710 5708 5705 5700 5697 5694 5690 5686 5683 5682 5679 5685 5692 5695 5699 5710 5713 5713 5717 5726 5732 5739 5741 5732
5761 5760 5759 5760 5763 5763 5762 5762 5762 5761 5761 5759 5757 5755 5753 5751 5750 5748 5745 5743 5739 5735 5731 5727 5724 5722 5720 5717 5713 5709 5704 5704 5700 5696 5693 5688 5683 5678 5672 5672 5671 5676 5682 5687 5693 5700 5707 5709 5714 5720 5723 5723 5731 5732
5754 5752 5753 5755 5758 5759 5758 5758 5759 5758 5757 5756 5753 5751 5749 5747 5745 5743 5740 5737 5734 5730 5726 5724 5720 5718 5715 5712 5708 5703 5701 5699 5696 5693 5689 5685 5680 5674 5670 5667 5670 5670 5672 5682 5689 5693 5698 5705 5711 5716 5719 5720 5721 5723
5748 5747 5748 5750 5753 5754 5753 5755 5755 5755 5754 5752 5750 5748 5745 5742 5740 5738 5736 5733 5729 5726 5723 5720 5718 5714 5711 5708 5704 5700 5698 5696 5693 5690 5686 5683 5678 5673 5670 5671 5669 5672 5674 5678 5673 5686 5693 5698 5704 5711 5711 5713 5717 5721
5742 5742 5744 5745 5747 5748 5750 5751 5752 5752 5751 5749 5747 5744 5742 5739 5737 5735 5732 5728 5725 5723 5720 5718 5714 5711 5708 5705 5701 5699 5697 5694 5692 5688 5685 5680 5678 5676 5670 5663 5667 5666 5673 5678 5683 5684 5690 5694 5701 5706 5706 5711 5717 5721
5736 5738 5741 5742 5742 5744 5746 5747 5748 5748 5748 5746 5744 5741 5739 5736 5733 5730 5728 5726 5723 5721 5719 5716 5713 5709 5707 5704 5700 5698 5696 5693 5691 5688 5685 5680 5675 5677 5675 5670 5669 5670 5672 5677 5683 5687 5690 5694 5698 5700 5704 5708 5711 5715
5730 5733 5736 5737 5738 5740 5742 5744 5745 5745 5745 5743 5741 5739 5737 5734 5731 5728 5725 5724 5723 5721 5718 5715 5713 5708 5707 5703 5699 5697 5695 5693 5690 5688 5686 5683 5679 5679 5677 5675 5675 5676 5678 5679 5683 5686 5688 5691 5694 5697 5700 5703 5707 5711
5726 5728 5730 5732 5734 5736 5738 5741 5742 5742 5741 5740 5738 5737 5734 5732 5729 5726 5724 5724 5723 5722 5718 5715 5712 5710 5707 5703 5699 5698 5696 5694 5691 5684 5686 5685 5681 5680 5678 5678 5679 5679 5679 5680 5682 5684 5686 5688 5691 5695 5698 5700 5703 5706
5721 5723 5725 5727 5729 5732 5734 5737 5739 5739 5738 5737 5736 5734 5732 5730 5727 5725 5724 5723 5722 5720 5717 5715 5711 5709 5707 5702 5700 5698 5696 5694 5692 5691 5688 5686 5684 5682 5681 5680 5679 5679 5679 5679 5679 5681 5683 5685 5688 5691 5694 5697 5699 5702
5716 5718 5720 5722 5725 5728 5731 5734 5735 5736 5735 5734 5733 5732 5731 5728 5726 5724 5723 5723 5722 5720 5718 5715 5712 5708 5706 5703 5700 5698 5697 5695 5694 5692 5689 5687 5686 5686 5685 5682 5681 5680 5679 5678 5678 5678 5679 5682 5685 5687 5690 5692 5694 5696
5711 5713 5716 5717 5721 5724 5728 5730 5732 5733 5733 5732 5731 5729 5728 5726 5724 5723 5722 5723 5722 5721 5718 5715 5713 5709 5706 5704 5701 5699 5697 5695 5693 5691 5689 5687 5687 5688 5687 5685 5683 5681 5679 5678 5678 5677 5677 5679 5680 5682 5684 5686 5688 5689
5708 5710 5711 5713 5717 5721 5725 5727 5729 5730 5730 5729 5728 5726 5726 5725 5723 5721 5721 5722 5722 5721 5719 5716 5713 5710 5707 5704 5702 5699 5697 5695 5692 5691 5686 5691 5689 5687 5687 5685 5683 5681 5680 5679 5678 5678 5678 5678 5679 5679 5680 5681 5681 5682
5704 5705 5707 5711 5715 5719 5722 5724 5726 5727 5727 5726 5725 5724 5723 5722 5721 5720 5720 5720 5721 5720 5719 5716 5714 5712 5709 5706 5703 5701 5699 5695 5692 5692 5688 5679 5684 5684 5685 5684 5682 5680 5679 5678 5677 5676 5676 5676 5676 5676 5676 5676 5676 5676
5700 5702 5705 5710 5713 5716 5719 5721 5723 5724 5724 5724 5723 5722 5720 5720 5719 5718 5718 5719 5719 5720 5719 5717 5715 5712 5710 5708 5705 5703 5699 5696 5695 5693 5690 5686 5685 5685 5684 5682 5680 5678 5677 5676 5675 5674 5673 5672 5672 5671 5671 5671 5671 5670
5698 5700 5703 5707 5711 5714 5717 5719 5720 5721 5721 5721 5720 5719 5718 5717 5717 5716 5716 5717 5718 5719 5718 5717 5715 5713 5711 5709 5707 5705 5702 5700 5697 5696 5693 5691 5688 5685 5683 5680 5678 5676 5674 5673 5671 5670 5669 5668 5667 5666 5666 5665 5664 5663
5695 5697 5701 5706 5709 5712 5714 5716 5717 5718 5719 5718 5717 5716 5715 5714 5714 5714 5715 5716 5717 5718 5717 5716 5716 5714 5713 5711 5709 5706 5704 5701 5699 5696 5694 5691 5688 5685 5682 5679 5676 5674 5672 5670 5668 5667 5665 5663 5662 5661 5660 5658 5657 5656
5692 5696 5700 5704 5708 5710 5712 5714 5715 5716 5716 5715 5714 5713 5712 5712 5711 5711 5712 5714 5715 5716 5716 5716 5714 5713 5712 5710 5708 5708 5704 5703 5700 5697 5694 5691 5687 5684 5681 5678 5675 5672 5670 5668 5666 5664 5662 5660 5658 5656 5654 5652 5650 5648
5691 5695 5698 5702 5705 5708 5710 5711 5712 5713 5713 5712 5711 5710 5710 5710 5710 5710 5711 5712 5714 5715 5715 5715 5714 5713 5712 5710 5709 5707 5704 5702 5699 5697 5693 5690 5686 5683 5679 5676 5673 5671 5668 5665 5663 5661 5658 5656 5654 5651 5649 5647 5644 5642
5691 5693 5697 5700 5704 5706 5707 5709 5709 5710 5710 5709 5708 5707 5707 5707 5708 5708 5709 5711 5711 5712 5713 5713 5713 5713 5712 5710 5709 5706 5704 5702 5699 5696 5693 5688 5685 5681 5678 5674 5671 5668 5665 5662 5660 5657 5655 5652 5650 5648 5645 5643 5640 5638
5689 5691 5694 5698 5700 5703 5705 5706 5706 5707 5707 5706 5706 5705 5705 5705 5705 5706 5707 5708 5709 5710 5710 5711 5711 5711 5710 5709 5708 5706 5704 5701 5698 5694 5690 5687 5683 5680 5676 5673 5670 5666 5663 5660 5657 5655 5651 5649 5646 5642 5640 5638 5635 5632
5687 5690 5693 5695 5697 5699 5701 5703 5704 5704 5704 5703 5703 5703 5703 5703 5703 5703 5704 5705 5706 5707 5708 5709 5709 5709 5709 5708 5707 5706 5704 5701 5697 5694 5690 5686 5683 5679 5676 5673 5670 5666 5662 5658 5655 5651 5646 5644 5642 5638 5636 5633 5630 5627
5686 5688 5691 5693 5695 5697 5700 5699 5700 5701 5700 5700 5700 5700 5701 5701 5701 5701 5701 5702 5702 5702 5705 5707 5708 5707 5707 5707 5706 5705 5703 5700 5697 5694 5690 5687 5683 5680 5676 5673 5668 5664 5661 5657 5654 5651 5647 5645 5642 5637 5632 5628 5625 5623
5683 5686 5688 5691 5693 5695 5695 5696 5696 5697 5697 5697 5697 5697 5698 5698 5698 5699 5699 5697 5696 5698 5702 5704 5705 5706 5706 5706 5705 5704 5702 5700 5697 5694 5691 5688 5684 5681 5678 5673 5669 5665 5661 5658 5653 5650 5645 5641 5636 5631 5628 5624 5622 5618
5682 5685 5687 5688 5690 5692 5692 5692 5692 5693 5692 5693 5693 5694 5694 5695 5696 5697 5696 5692 5683 5694 5699 5702 5703 5705 5705 5705 5705 5703 5702 5699 5697 5694 5691 5688 5685 5682 5677 5674 5671 5667 5662 5658 5654 5649 5644 5639 5635 5630 5626 5621 5617 5614
5680 5682 5684 5685 5687 5688 5689 5689 5688 5688 5688 5688 5689 5690 5691 5692 5693 5695 5696 5696 5695 5697 5700 5701 5704 5704 5705 5704 5703 5702 5700 5698 5696 5694 5691 5688 5685 5683 5680 5676 5672 5668 5663 5659 5655 5650 5644 5639 5634 5629 5624 5619 5615 5611
5678 5680 5682 5683 5684 5685 5685 5684 5684 5683 5683 5684 5685 5686 5689 5690 5690 5692 5694 5695 5695 5697 5699 5701 5702 5703 5703 5702 5701 5700 5698 5696 5695 5693 5690 5688 5686 5684 5681 5677 5673 5669 5665 5660 5655 5650 5644 5639 5633 5628 5623 5618 5613 5608
5676 5678 5679 5681 5681 5681 5681 5680 5680 5678 5678 5679 5681 5682 5684 5686 5688 5690 5691 5693 5694 5696 5698 5700 5701 5701 5701 5700 5699 5699 5698 5697 5696 5694 5692 5689 5687 5684 5682 5678 5675 5670 5664 5661 5657 5651 5645 5639 5633 5628 5622 5617 5611 5606
5674 5676 5677 5678 5678 5678 5677 5677 5676 5676 5676 5677 5678 5680 5682 5684 5686 5688 5690 5692 5693 5695 5696 5698 5698 5699 5699 5698 5698 5698 5698 5697 5697 5695 5691 5689 5686 5684 5681 5679 5676 5672 5668 5663 5657 5652 5646 5640 5634 5628 5622 5616 5611 5605
5673 5674 5674 5675 5675 5675 5676 5675 5675 5675 5675 5676 5677 5679 5682 5684 5686 5688 5689 5690 5691 5693 5694 5695 5697 5698 5698 5698 5697 5696 5695 5696 5697 5693 5691 5689 5685 5683 5682 5680 5675 5672 5668 5664 5660 5655 5648 5642 5637 5631 5624 5617 5610 5604
5670 5671 5672 5672 5673 5674 5675 5675 5675 5676 5677 5679 5680 5682 5684 5686 5687 5688 5688 5688 5690 5693 5695 5696 5697 5699 5699 5695 5693 5696 5691 5694 5692 5692 5690 5688 5686 5685 5682 5679 5676 5673 5669 5664 5660 5654 5649 5643 5637 5631 5624 5617 5611 5605
5668 5669 5670 5672 5673 5675 5675 5676 5677 5677 5678 5680 5682 5683 5685 5687 5688 5689 5690 5692 5692 5693 5694 5696 5697 5699 5700 5696 5697 5695 5692 5691 5692 5691 5689 5687 5683 5682 5680 5679 5676 5673 5670 5665 5661 5656 5650 5645 5639 5632 5626 5620 5613 5607
5667 5668 5670 5671 5672 5674 5676 5677 5678 5679 5681 5682 5684 5685 5686 5688 5689 5691 5692 5691 5691 5692 5691 5696 5695 5696 5698 5698 5697 5695 5692 5692 5693 5691 5688 5686 5685 5683 5682 5679 5677 5673 5669 5665 5661 5656 5651 5645 5639 5633 5627 5621 5615 5609